Regional Weather Roundup
Issued by NWS

Home | Current Version | Previous Version | Graphics & Text | Print | Product List | Glossary On
Versions: 1 2 3 4 5 6 7 8 9 10 11 12 13 14 15 16 17 18 19 20 21 22 23 24 25 26 27 28 29 30 31 32 33 34 35 36 37 38 39 40 41 42 43 44 45 46 47 48 49 50
000
ASUS43 KIND 281059
RWRIN

WEATHER ROUNDUP FOR INDIANA
NATIONAL WEATHER SERVICE INDIANAPOLIS IN
600 AM EST SAT FEB 28 2015

NOTE: "FAIR" INDICATES FEW OR NO CLOUDS BELOW 12,000 FEET WITH NO
SIGNIFICANT WEATHER AND/OR OBSTRUCTIONS TO VISIBILITY.

* - STATION DOES NOT REPORT WEATHER SUCH AS PRECIPITATION OR FOG.

+ - STATION NOT QUALITY CONTROLLED BY THE NATIONAL WEATHER SERVICE.
    USE DATA WITH CAUTION...ESPECIALLY DEWPOINT AND RELATIVE
    HUMIDITY OBSERVATIONS.

INZ001>003-010>013-019-020-281200-
NORTHWEST INDIANA

CITY           SKY/WX    TMP DP  RH WIND       PRES   REMARKS
GARY /AIRPORT/ CLEAR     -6 -15  65 CALM      30.70R
VALPARAISO     NOT AVBL

$$

LMZ046-743>745-281200-
SOUTHERN LAKE MICHIGAN

STATION/POSITION TIME  TEMP WIND        PRES
                       AIR  DIR/SP/G
                 (UTC) (F)  (DEG/KT/KT) (MB)
MICHIGAN CITY    1000    2  150/  4/  5   N/A

$$

INZ004-005-014>016-021>024-281200-
NORTH CENTRAL INDIANA

CITY           SKY/WX    TMP DP  RH WIND       PRES   REMARKS
GOSHEN         PTCLDY   -10 -17  71 CALM      30.69R
SOUTH BEND     PTCLDY    -5 -11  75 CALM      30.69R

$$

INZ006>009-017-018-025>027-281200-
NORTHEAST INDIANA

CITY           SKY/WX    TMP DP  RH WIND       PRES   REMARKS
ANGOLA *+      CLEAR    -11 -17  77 CALM      30.67R
FORT WAYNE     MOCLDY     0  -5  79 CALM      30.70R

$$

INZ028-029-035-036-043>045-051>053-281200-
WEST CENTRAL INDIANA

CITY           SKY/WX    TMP DP  RH WIND       PRES   REMARKS
CRAWFORDSVL +  MOCLDY     3  -8  62 CALM      30.67R
GREENCASTLE +  PTCLDY     9  -2  61 E3        30.66R
LAFAYETTE      MOCLDY     6  -1  73 E6        30.69R WCI  -4
TERRE HAUTE    CLOUDY    11   1  64 NE6       30.68R WCI   1

$$

INZ030>032-037>040-046>048-054>057-064-065-281200-
CENTRAL INDIANA

CITY           SKY/WX    TMP DP  RH WIND       PRES   REMARKS
GREENWOOD *+   CLOUDY     9  -2  61 E6        30.67R WCI  -1
INDIANAPOLIS   CLOUDY    10   2  69 NE7       30.66R WCI  -1
-EAGLE CREEK   MOCLDY     9   1  70 E5        30.67R WCI   1
KOKOMO *+      PTCLDY     1  -4  78 CALM      30.69R
MT COMFORT *+  PTCLDY     5  -6  61 CALM      30.67R
SHELBYVILLE    CLOUDY     8   0  69 E6        30.67R WCI  -2

$$

INZ033-034-041-042-049-050-058-059-281200-
EAST CENTRAL INDIANA

CITY           SKY/WX    TMP DP  RH WIND       PRES   REMARKS
MUNCIE         PTCLDY    -3  -7  82 E3        30.68R

$$

INZ060-061-067>069-081>083-085>088-281200-
SOUTHWEST INDIANA

CITY           SKY/WX    TMP DP  RH WIND       PRES   REMARKS
EVANSVILLE     CLOUDY    20   8  60 NE7       30.66R WCI  11
HUNTINGBURG *+ PTCLDY    18   5  57 NE7       30.66R WCI   8

$$

INZ062-063-066-070>080-084-089>092-281200-
SOUTH CENTRAL AND SOUTHEAST INDIANA

CITY           SKY/WX    TMP DP  RH WIND       PRES   REMARKS
BLOOMINGTON    MOCLDY    13   2  61 E5        30.65R WCI   5
SEYMOUR +      PTCLDY     9   0  66 CALM      30.68R

$$




USA.gov is the U.S. government's official web portal to all federal, state and local government web resources and services.